Orbital elements: C/2009 R1 (McNaught) T 2010 July 2.1701 TT MPC q 0.401431 (2000.0) P Q Peri. 130.8635 -0.4152567 -0.6929477 Node 322.7253 +0.1978019 +0.5636176 e 1.0 Incl. 76.7005 +0.8879394 -0.4496205 From 35 observations 2009 July 20-Sept. 10. [url=http://www.cfa.harvard.edu/mpec/K0...
|
|
|
|
|
|
SOHO 1932 Sungrazer comet
(Preview)
|
Comets
|
0
|
2977
|
|
|
A Kreutz orbital group sungrazer comet, SOHO 1932, has been discovered by Bo Zhou (China) in SOHO C3 chronagraph images. Credit SOHO
|
|
|
|
|
|
Comet C/2010 V1 (IKEYA-MURAKAMI)
(
1 2 3
)
(Preview)
|
Comets
|
20
|
20692
|
|
|
Orbital elements: C/2010 V1 (Ikeya-Murakami) T 2010 Oct. 18.817 TT MPC q 1.71541 (2000.0) P Q Peri. 155.076 -0.944539 -0.328019 Node 5.844 +0.269313 -0.801191 e 1.0 Incl. 8.913 +0.187925 -0.500497 From 50 observations 2010 Nov. 3-4. [url=http://www.minorplanetcenter.org/mpec/K10/K10V46...
|
|
|
|
|
|
Exosolar comets
(Preview)
|
Meteorite News
|
1
|
3260
|
|
|
If comets exist around other stars, astronomers should be able to see them directly, says Michael Jura, astronomer at the University of California in Los Angeles (UCLA). All they need to do is use the same observatories that promise to reveal Earth-size extrasolar planets.
Astronomers have dis...
|
|
|
|
|
|
Comet C/2010 KW7 (WISE)
(Preview)
|
Comets
|
2
|
3110
|
|
|
Comet C/2010 KW7 (WISE) was discovered by the WISE satellite on the 16th May, 2010. The orbital elements of the comet indicate a perihelion passage on the 11th October, 2010, at a distance of 2.5 AU from the Sun. Orbital elements: C/2010 KW7 Epoch 2010 Oct. 11.0 TT = JDT 2455480.5 T 2010 Oct. 11.34791 TT...
|
|
|
|
|
|
Comet C/1861 G1 (Thatcher)
(Preview)
|
Comets
|
0
|
3968
|
|
|
Comet C/1861 G1 (Thatcher) is a long-period comet discovered by A. E. Thatcher. It is responsible for the Lyrids meteor shower. Carl Wilhelm Baeker also independently found this comet. Read more
|
|
|
|
|
|
Sungrazer comet, 09.05.11
(Preview)
|
Comets
|
5
|
6035
|
|
|
A Kreutz group Sungrazer comet was discovered by Sergey Shurpakov on the 9th May, 2011. Expand (463kb, 1024 x 1024) Credit NASA/SOHO
|
|
|
|
|
|
Sungrazer comet, 21.05.11
(Preview)
|
Comets
|
0
|
2409
|
|
|
CME with a Bonus O Sol desencadeou uma ejeção de massa coronal (CME) de bom tamanho, que ejetou-se para o espaço (20-21 maio de 2011), como a espaçonave STEREO (adiante) observou. Logo depois, como um bônus visual, um cometa surgiu (da direi...
|
|
|
|
|
|
Sungrazer comet, 29.09.11
(Preview)
|
Comets
|
2
|
3116
|
|
|
A bright sungrazer comet has entered the field of view of the C3 instrument of the SOHO satellite. The comet belongs to the Kreutz orbital group. Expand (137kb, 560 x 560) Credit: SOHO/MDI Real time image (794kb, 1024 x 1024) Ed ~ Correct image uploaded
|
|
|
|
|
|
Sungrazer comet 08.03.12
(Preview)
|
Comets
|
5
|
8244
|
|
|
A (probable) Kreutz group Sungrazer comet was discovered on images taken by the SOHO satellite by Vladimir Bezugly on the 8th March, 2012.
|
|
|
|
|
|
Great Comet of 1881 (C/1881 K1)
(Preview)
|
Comets 2013
|
2
|
8612
|
|
|
Title: C/1881 K1: A Forgotten "Great Comet'' of the Nineteenth Century Authors: W. Orchiston The Great Comet of 1881 (C/1881 K1) was discovered by the Australian amateur astronomer, John Tebbutt, and was destined to make a major contribution to cometary astronomy. Because it appeared at a c...
|
|
|
|
|
|
Asteroid 2012 OP
(Preview)
|
Asteroids 2012
|
4
|
4721
|
|
|
Orbital elements:
2012 OP
Epoch 2012 Sept. 30.0 TT = JDT 2456200.5 MPC
M 359.56033 (2000.0) P Q
n 0.00490147 Peri. 356.96404 -0.00726295 -0.40379836
a 34.3229884 Node 268.35888 -0.89709870 -0.40153033
e 0.8982708 Incl. 113.76663 -0.44177051 +0.82202206
P 201 H 14.0 G 0.15 U 7 MPEC 2012 - O...
|
|
|
|
|